Corona, CA

4:49 PM PDT on May 21, 2018 (GMT -0700)
Corona Municipal

Weather History for KAJO - April, 2013

Change the Weather History Date:

Friday, April 19, 2013

  Actual Average (KCNO) Record (KCNO)
Temperature  
Mean Temperature 59 °F -  
Max Temperature 88 °F 72 °F 97 °F (2009)
Min Temperature 32 °F 43 °F 37 °F (2003)
Degree Days  
Heating Degree Days 6    
Growing Degree Days 9 (Base 50)    
Moisture  
Dew Point 22 °F    
Average Humidity 32    
Maximum Humidity 79    
Minimum Humidity 5    
Precipitation  
Precipitation 0.00 in - - ()
Sea Level Pressure  
Sea Level Pressure 30.07 in    
Wind  
Wind Speed 4 mph (WNW)    
Max Wind Speed 12 mph    
Max Gust Speed 22 mph    
Visibility 10 miles    
Events      
Averages and records for this station are not official NWS values.
T = Trace of Precipitation, MM = Missing Value Source: NWS Daily Summary

Daily Weather History Graph

Daily Weather History Graph

Search for Another Location

Airport or City:

Astronomy

Apr. 19, 2013 Rise Set
Actual Time 6:14 AM PDT 7:25 PM PDT
Civil Twilight 5:48 AM PDT 7:50 PM PDT
Nautical Twilight 5:17 AM PDT 8:21 PM PDT
Astronomical Twilight 4:45 AM PDT 8:53 PM PDT
Moon 1:30 PM PDT (4/19) 2:15 AM PDT (4/19)
Length of Visible Light 14h 02m
Length of Day
13h 10m
Waxing Gibbous, 62% of the Moon is Illuminated
Apr 19
Waxing Gibbous
Apr 25
Full
May 2
Last Quarter
May 9
New
May 17
First Quarter

Hourly Weather History & Observations

Time (PDT) Temp. Windchill Dew Point Humidity Pressure Visibility Wind Dir Wind Speed Gust Speed Precip Events Conditions
12:56 AM 43.9 °F 42.3 °F 28.0 °F 54% 30.16 in 10.0 mi SW 3.5 mph - N/A   Clear
1:56 AM 39.9 °F 37.8 °F 27.1 °F 60% 30.15 in 10.0 mi East 3.5 mph - N/A   Clear
2:56 AM 39.9 °F 35.8 °F 28.0 °F 63% 30.14 in 10.0 mi North 5.8 mph - N/A   Clear
3:56 AM 36.0 °F - 27.1 °F 70% 30.15 in 10.0 mi Calm Calm - N/A   Clear
4:56 AM 34.9 °F - 27.1 °F 73% 30.15 in 10.0 mi Calm Calm - N/A   Clear
5:56 AM 32.0 °F - 26.1 °F 79% 30.17 in 10.0 mi Calm Calm - N/A   Clear
6:56 AM 36.9 °F 34.3 °F 29.1 °F 74% 30.17 in 10.0 mi WNW 3.5 mph - N/A   Clear
8:56 AM 57.9 °F - 30.0 °F 35% 30.18 in 10.0 mi Calm Calm - N/A   Clear
9:56 AM 66.9 °F - 29.1 °F 24% 30.17 in 10.0 mi NNW 3.5 mph - N/A   Clear
10:56 AM 77.9 °F - 22.1 °F 13% 30.14 in 10.0 mi Variable 3.5 mph - N/A   Clear
11:56 AM 81.9 °F - 12.0 °F 7% 30.12 in 10.0 mi Variable 3.5 mph - N/A   Clear
12:56 PM 81.9 °F - 9.1 °F 6% 30.08 in 10.0 mi West 5.8 mph - N/A   Clear
1:56 PM 84.9 °F - 8.1 °F 5% 30.05 in 10.0 mi Variable 3.5 mph - N/A   Partly Cloudy
2:56 PM 86.0 °F - 11.1 °F 6% 30.01 in 10.0 mi Variable 4.6 mph - N/A   Clear
3:56 PM 86.9 °F - 15.1 °F 7% 29.97 in 10.0 mi NW 8.1 mph - N/A   Clear
4:56 PM 84.9 °F - 18.1 °F 8% 29.96 in 10.0 mi West 11.5 mph - N/A   Clear
5:56 PM 81.0 °F - 17.1 °F 9% 29.97 in 10.0 mi West 11.5 mph 21.9 mph N/A   Clear
6:56 PM 75.9 °F - 17.1 °F 11% 29.96 in 10.0 mi West 10.4 mph - N/A   Clear
7:56 PM 72.0 °F - 21.0 °F 15% 29.97 in 10.0 mi Variable 5.8 mph - N/A   Clear
8:56 PM 68.0 °F - 25.2 °F 20% 29.98 in 10.0 mi WNW 3.5 mph - N/A   Clear
9:56 PM 57.9 °F - 25.2 °F 28% 29.98 in 10.0 mi NNE 4.6 mph - N/A   Clear
10:56 PM 54.0 °F - 27.1 °F 36% 29.99 in 10.0 mi Calm Calm - N/A   Clear
11:56 PM 52.0 °F - 30.0 °F 43% 29.99 in 10.0 mi Calm Calm - N/A   Clear